TimeEDT,TemperatureF,Dew PointF,Humidity,Sea Level PressureIn,VisibilityMPH,Wind Direction,Wind SpeedMPH,Gust SpeedMPH,PrecipitationIn,Events,Conditions,WindDirDegrees,DateUTC
12:52 AM,46.0,36.0,68,29.93,10.0,WSW,6.9,-,N/A,,Clear,250,2012-10-07 04:52:00
1:52 AM,41.0,37.9,89,29.94,10.0,Calm,Calm,-,N/A,,Clear,0,2012-10-07 05:52:00
2:52 AM,37.9,35.1,89,29.96,10.0,Calm,Calm,-,N/A,,Partly Cloudy,0,2012-10-07 06:52:00
3:52 AM,41.0,37.9,89,29.98,10.0,Calm,Calm,-,0.00,,Overcast,0,2012-10-07 07:52:00
4:52 AM,39.0,37.0,93,30.00,10.0,NNW,3.5,-,N/A,,Mostly Cloudy,330,2012-10-07 08:52:00
5:52 AM,39.0,36.0,89,30.02,10.0,Calm,Calm,-,N/A,,Scattered Clouds,0,2012-10-07 09:52:00
6:18 AM,37.4,35.6,93,30.00,2.5,Calm,Calm,-,N/A,,Partly Cloudy,0,2012-10-07 10:18:00
6:40 AM,37.4,35.6,93,30.02,10.0,Calm,Calm,-,N/A,,Partly Cloudy,0,2012-10-07 10:40:00
6:52 AM,37.0,35.1,93,30.04,10.0,Calm,Calm,-,N/A,,Clear,0,2012-10-07 10:52:00
7:52 AM,37.9,36.0,93,30.05,10.0,SSE,3.5,-,N/A,,Clear,160,2012-10-07 11:52:00
8:52 AM,43.0,39.0,86,30.04,10.0,Calm,Calm,-,N/A,,Clear,0,2012-10-07 12:52:00
9:52 AM,46.0,41.0,83,30.04,10.0,Calm,Calm,-,N/A,,Partly Cloudy,0,2012-10-07 13:52:00
10:52 AM,46.9,37.0,68,30.04,10.0,Calm,Calm,-,N/A,,Overcast,0,2012-10-07 14:52:00
11:52 AM,48.9,37.0,64,30.04,10.0,NNW,4.6,-,N/A,,Overcast,330,2012-10-07 15:52:00
12:52 PM,48.9,34.0,56,30.06,10.0,WSW,8.1,-,N/A,,Scattered Clouds,250,2012-10-07 16:52:00
1:52 PM,50.0,35.1,57,30.05,10.0,West,8.1,-,N/A,,Clear,260,2012-10-07 17:52:00
2:52 PM,51.1,35.1,54,30.04,10.0,West,5.8,-,N/A,,Clear,280,2012-10-07 18:52:00
3:52 PM,51.1,36.0,56,30.03,10.0,SW,3.5,-,N/A,,Mostly Cloudy,220,2012-10-07 19:52:00
4:52 PM,50.0,36.0,59,30.02,10.0,WNW,3.5,-,N/A,,Overcast,300,2012-10-07 20:52:00
5:52 PM,48.9,37.0,64,30.03,10.0,Calm,Calm,-,N/A,,Overcast,0,2012-10-07 21:52:00
6:52 PM,46.9,39.0,74,30.04,10.0,Calm,Calm,-,N/A,,Overcast,0,2012-10-07 22:52:00
7:52 PM,45.0,39.9,82,30.01,10.0,Calm,Calm,-,N/A,,Scattered Clouds,0,2012-10-07 23:52:00
8:52 PM,45.0,41.0,86,30.04,10.0,Calm,Calm,-,N/A,,Overcast,0,2012-10-08 00:52:00
9:52 PM,45.0,41.0,86,30.05,10.0,Calm,Calm,-,0.00,Rain,Light Rain,0,2012-10-08 01:52:00
10:52 PM,44.1,41.0,89,30.06,6.0,Calm,Calm,-,0.03,Rain,Rain,0,2012-10-08 02:52:00
11:52 PM,43.0,39.9,89,30.07,7.0,Calm,Calm,-,0.04,Rain,Light Rain,0,2012-10-08 03:52:00